Regional Weather Roundup
Issued by NWS Charleston, SC

Current Version | Previous Version | Graphics & Text | Print | Product List | Glossary On
Versions: 1 2 3 4 5 6 7 8 9 10 11 12 13 14 15 16 17 18 19 20 21 22 23 24 25 26 27 28 29 30 31 32 33 34 35 36 37 38 39 40 41 42 43 44 45 46 47 48 49 50
000
ASUS42 KCHS 200924
RWRCHS

REGIONAL WEATHER ROUNDUP
NATIONAL WEATHER SERVICE CHARLESTON SC
500 AM EDT WED SEP 20 2017

NOTE: "FAIR" INDICATES FEW OR NO CLOUDS BELOW 12,000 FEET WITH NO
SIGNIFICANT WEATHER AND/OR OBSTRUCTIONS TO VISIBILITY.

NOT ALL STATIONS ARE QUALITY CONTROLLED. USE DATA WITH CAUTION...
ESPECIALLY DEWPOINT OBSERVATIONS.

SCZ027-030-031-034>040-042>050-201000-
...SOUTHEAST SOUTH CAROLINA...

CITY           SKY/WX    TMP DP  RH WIND       PRES   REMARKS
N CHARLESTON   PTCLDY    73  72  96 CALM      29.98S FOG
WATERFRONT PRK   N/A     76  73  90 VRB2      29.83R
JOHNS ISLAND   FAIR      73  72  94 CALM      29.99R
PINOPOLIS        N/A     75  73  94 SW6       29.91R
MONCKS CORNER  FAIR      68  66  94 CALM      29.98S
SUMMERVILLE    FAIR      70  68  94 CALM      30.00R
BEAUFORT MCAS  PTCLDY    74  73  97 SW3       29.98S
BEAUFORT ARPT  FAIR      73  72  94 CALM      29.98S
HILTON HEAD IS PTCLDY    75  75 100 CALM      29.99S
WALTERBORO     MOSUNNY   70  68  94 CALM      30.00R
ALLENDALE      NOT AVBL

...SOUTHERN MIDLANDS AND PEE DEE...

CITY           SKY/WX    TMP DP  RH WIND       PRES   REMARKS
GEORGETOWN     FAIR      66  64  94 CALM      29.99S FOG
KINGSTREE      FAIR      64  63  94 CALM      29.98S
ORANGEBURG     PTCLDY    68  67  96 CALM      29.99S FOG
BARNWELL       FAIR      70  68  94 CALM      29.99S
AIKEN          FAIR      64  64 100 CALM      30.02S
MANNING        FAIR      66  63  88 CALM      29.98F
COLUMBIA       PTCLDY    69  65  86 CALM      29.98R
SUMTER         PTCLDY    68  66  92 CALM      29.96S
FLORENCE       PTCLDY    65  65 100 CALM      29.98R
MYRTLE BEACH   CLEAR     70  67  90 W5        29.99R
N MYRTLE BEACH CLEAR     70  67  90 W3        29.98R

$$

GAZ063-065-086>088-099>101-113>116-118-119-134>141-150-201000-
...SOUTHEAST GEORGIA...

CITY           SKY/WX    TMP DP  RH WIND       PRES   REMARKS
SAVANNAH ARPT  CLOUDY    75  72  90 SW6       29.99R
HUNTER AAF     CLOUDY    74  72  91 SW3       29.96S
FORT STEWART   CLOUDY    72  69  89 CALM      29.97R
STATESBORO     MOCLDY    72  71  98 CALM      29.99R
SYLVANIA       PTSUNNY   72  72 100 CALM      30.00R
CLAXTON        FAIR      72  70  95 CALM      29.99R

...CSRA...CENTRAL AND FAR SOUTHEAST GEORGIA...

CITY           SKY/WX    TMP DP  RH WIND       PRES   REMARKS
THOMSON        CLEAR     67  66  95 CALM      30.03S
AUGUSTA-BUSH   PTCLDY    70  68  93 CALM      29.97S
AUGUSTA-DANIEL PTCLDY    73  69  87 SE5       29.99S
SWAINSBORO     FAIR      72  72 100 CALM      29.99S
VIDALIA        CLOUDY    72  70  94 CALM      29.99R
EASTMAN        FAIR      71  71 100 CALM      30.00R
HAZLEHURST     FAIR      75  66  74 S3        29.97S
ALMA           CLOUDY    74  69  85 S3        29.98R
WAYCROSS       PTCLDY    73  70  91 SW5       29.99R
JESUP          NOT AVBL
BAXLEY         FAIR      72  72 100 CALM      29.98R
BRUNSWICK      PTCLDY    73  68  83 W3        30.00R
SAINT SIMONS   MOCLDY    76  72  87 W3        29.98S

$$

SCZ027-028-034-036>038-045-046-048>050-GAZ119-141-201000-
...LAKE AND SUPPLEMENTAL COASTAL OBSERVATIONS...

STATION/POSITION TIME  TEMP    WIND        PRES    WAVE   SWELL
                       AIR SEA DIR/SP/G            HT/PER HT/PER/DIR
                 (UTC) (F)     (DEG/KT/KT) (MB)    (FT/S) (FT/S/D)
WINYAH BAY       NOT AVBL
LAKE MURRAY      0820   75      CALM  /  1 1014.2
ACE BASIN NERRS  0745   73        CALM     1015.0
FORT PULASKI     0836   76 79  280/  1/  2 1015.6R
SAPELO ISLAND    0800   76        CALM     1015.0

$$

ANZ835-935-AMZ111-154-330-350-352-354-370-450-454-472-201000-
...C-MAN AND BUOY OBSERVATIONS...

STATION/POSITION TIME  TEMP    WIND        PRES    WAVE   SWELL
                       AIR SEA DIR/SP/G            HT/PER HT/PER/DIR
                 (UTC) (F)     (DEG/KT/KT) (MB)    (FT/S) (FT/S/D)
BUOY 41004       0850   79     260/  8/ 10 1014.8R   3/10   3/ 70/10
BUOY 41008       0850   80 80  220/  8/ 10 1014.9S   3/11   3/ 50/11
FOLLY BEACH CMAN 0900   76     260/  3/  4 1015.9R
CAPERS NEARSHORE 0808   76 80  260/  8/ 12 1014.8S
FRIPP NEARSHORE  0808   79     220/  8/ 12 1022.6


STATION/POSITION TIME  TEMP    WIND        PRES    WAVE   SWELL
                       AIR SEA DIR/SP/G            HT/PER HT/PER/DIR
                 (UTC) (F)     (DEG/KT/KT) (MB)    (FT/S) (FT/S/D)
5E ST. MARYS GA  0900      81                N/A     3/13   2/ 80/13
FRYING PAN BUOY  0900   80 82  270/ 10/ 12 1014.7
BUOY 41025       0850   75 74  300/ 14/ 17 1012.4R   6/11   5/ 70/11
CAPE LOOKOUT NC  0900   76     270/  8/ 10 1013.7R
BUOY 41002       0850   78 80  290/  6/  8 1014.6R   8/11   8/ 30/11
BUOY 41010       0850      84   CALM  /  2 1014.6R   6/15   7/15
ST AUGUSTINE FL  0900   74 82  240/  5/  6 1015.1F


$$




USA.gov is the U.S. government's official web portal to all federal, state and local government web resources and services.